Погода в Тринкомали

Шри-Ланка     8°34′46″N   81°13′36″E
темп.,
°C
ветер,
м/с
пор.,
м/с
влажн.,
%
обл.,
%
осадки,
мм/ч
давл.,
гПа
погр.,
м
2 марта, вт
вт223:30+27в44680 0.0 1015990
02:30+27в34660 0.0 10121034
05:30+26вюв34661 0.0 10121034
08:30+26юв34660 0.0 1014637
11:30+28в56610 0.0 10141033
14:30+28всв55620 0.0 1010993
17:30+27всв55620 0.0 10111058
20:30+27в45640 0.0 10131080
3 марта, ср
ср323:30+27всв55690 0.0 10131012
02:30+26всв456362 0.0 10101041
05:30+26в456150 0.0 10101077
08:30+27в45580 0.0 10121290
11:30+27всв55650 0.0 10121053
14:30+27всв55610 0.0 1009860
17:30+27всв45610 0.0 10101148
20:30+27всв56670 0.0 10121043
4 марта, чт
чт423:30+26в56700 0.0 10121046
02:30+27в456668 0.0 10101182
05:30+26юв356646 0.0 10101069
08:30+26ю227023 0.0 1013422
11:30+26вюв236514 0.0 1012338
14:30+27всв45620 0.0 1009674
17:30+28в55630 0.0 10101118
20:30+28всв56680 0.0 10121025
5 марта, пт
пт523:30+28всв55730 0.0 1012992
02:30+27всв34710 0.0 1010953
05:30+27в347032 0.1 1011944
08:30+27в336952 0.0 1014909
11:30+27св336732 0.1 1013666
14:30+27всв55701 0.0 1010569
17:30+28всв56711 0.0 1010698
20:30+27всв67770 0.0 1012674
6 марта, сб
сб623:30+27св457731 0.0 1012567
02:30+27св447879 0.0 1010629
05:30+27ююв128064 0.0 1010288
08:30+27ююв128173 0.0 1013295
11:30+27св348259 0.1 1013460
14:30+28всв667936 0.2 1010552
17:30+28всв557924 0.3 1010511
20:30+28всв558330 0.0 1012667